Location: ????????
(37.6846°N, 24.0673°E)
Time: 03:35:22
(UTC+00:00)

Cosmos 1741 Rocket - Pass Details

Date: 14 July 2020
Orbit: 761 x 783 km, 74.0° (Epoch: 10 August)

Event Time Altitude Azimuth Distance (km) Brightness Sun altitude
Exits shadow 01:23:58 31° 204° (SSW) 1,319 4.7 -17.9°
Maximum altitude 01:26:32 81° 287° (WNW) 775 3.9 -17.6°
Drops below altitude 10° 01:31:46 10° 16° (NNE) 2,303 7.4 -16.9°
Sets 01:34:09 0° 18° (NNE) 3,235 8.4 -16.5°
